Wind_Speed
15 15 16 11 7 5 9 12 12 9 8 6 10 15 15 14 16 14 17 17 14 12 8 9 8 8 7 8 7 11 11 11 11 9 7 9 8 6 10 8 8 11 11 9
18 18 11 11 12 13 12 15 14 11 7 5 6 7 11 20 20 18 18 19 14 16 16 13 12 8 6 6 9 11 8 8 8 9 9 12 12 10 11 8 11 14 11 8
21 11 17 14 12 13 15 17 14 12 5 6 7 10 13 14 17 22 24 22 21 15 17 18 15 9 8 5 9 10 9 9 8 8 9 10 9 11 11 9 11 12 12 7
16 15 9 11 16 15 19 9 7 8 9 1 3 5 5 8 14 21 28 28 25 22 18 20 17 14 10 9 10 11 11 11 10 9 9 9 10 10 10 11 13 13 14 9
6 5 5 9 12 11 6 5 6 8 8 8 6 5 5 9 9 10 20 31 29 24 25 23 18 12 10 14 12 10 11 12 11 10 9 8 8 7 6 7 10 12 14 12
6 6 5 4 5 6 4 7 11 8 5 4 12 9 11 7 5 3 6 16 25 33 27 26 24 20 15 17 16 13 10 11 11 10 11 11 11 9 5 6 10 11 12 13
7 7 6 9 10 8 8 9 2 2 1 7 5 5 9 11 6 7 7 10 19 30 34 28 21 24 24 20 15 15 12 10 9 12 12 12 12 12 8 6 8 12 11 11
1 6 3 6 13 13 12 14 8 6 4 5 4 6 4 5 5 8 10 10 12 20 32 35 29 18 23 24 18 18 16 12 7 11 13 14 13 11 11 11 10 12 10 12
1 2 2 6 1 8 10 13 15 5 5 2 4 7 8 7 4 12 13 9 10 8 15 25 36 34 20 24 22 18 14 17 12 10 14 15 15 13 14 15 12 12 12 12
4 2 1 5 7 8 10 5 6 7 4 4 4 5 7 6 6 9 12 10 10 13 12 16 23 31 26 24 23 25 23 18 13 11 12 14 14 14 14 15 15 15 13 11
6 3 3 4 2 4 8 8 5 4 3 6 2 4 6 5 8 9 12 11 12 14 16 17 21 30 32 33 25 26 25 24 21 18 15 14 13 14 15 16 17 17 15 12
6 5 2 7 8 8 5 3 1 3 4 4 3 5 7 9 9 14 14 14 13 17 19 21 22 34 36 33 27 33 26 29 27 24 20 18 17 16 15 15 17 18 19 19
8 4 8 4 4 5 1 2 2 4 6 9 5 6 9 15 14 17 14 12 11 11 13 19 21 25 38 42 36 34 30 30 29 29 24 21 20 18 16 14 16 19 20 22
5 3 4 7 3 4 4 7 7 7 7 11 17 19 17 17 19 20 14 13 10 10 13 9 12 17 31 41 37 34 30 25 28 31 28 24 22 20 20 18 18 20 20 20
7 2 3 5 5 5 7 7 12 13 12 13 15 17 16 20 20 17 13 12 11 10 13 10 10 12 21 37 33 36 32 33 34 27 25 26 27 26 23 22 21 22 21 20
12 9 9 10 9 10 11 12 15 16 18 18 17 23 19 17 17 16 12 11 9 8 9 9 13 14 16 30 36 35 30 31 31 29 30 29 30 32 26 24 23 25 25 24
12 10 13 16 15 14 13 15 13 15 20 17 20 20 15 14 12 12 11 8 10 8 7 7 9 10 15 19 31 33 37 33 30 27 27 25 30 29 32 28 25 25 26 25
15 16 16 13 13 3 17 13 14 18 21 20 22 14 12 14 13 11 10 8 10 9 11 7 7 8 11 17 22 23 29 30 33 32 36 33 28 30 32 33 29 26 26 23
11 11 14 7 13 13 12 15 15 13 15 10 10 11 13 16 18 18 14 8 1 6 10 11 12 12 9 5 10 18 23 22 27 28 29 28 23 28 29 34 34 27 27 25
9 11 13 12 5 7 14 14 13 12 19 3 5 8 12 16 15 11 17 12 4 7 14 12 16 19 25 22 16 13 8 14 18 19 24 24 32 26 24 27 25 25 26 24
12 12 13 13 9 11 14 16 13 7 8 14 12 10 10 8 6 11 18 18 10 11 11 12 14 11 7 15 17 20 21 19 14 6 10 18 20 18 22 19 27 24 27 31
16 14 10 6 4 8 9 10 11 9 12 16 15 10 8 6 4 14 17 16 11 11 16 17 8 8 18 14 9 6 7 13 18 22 17 14 11 14 9 4 3 7 5 9
15 14 7 6 6 11 2 6 6 8 11 15 9 8 8 10 6 10 11 12 8 5 7 9 8 8 7 10 11 9 5 3 3 5 6 6 10 9 10 10 11 11 10 8
16 12 12 8 6 2 3 3 5 6 8 6 9 6 6 8 9 9 9 13 5 5 7 9 8 7 8 8 8 8 8 6 5 3 3 3 4 6 5 5 5 6 6 7
18 15 11 9 8 2 2 4 8 5 6 5 8 12 14 15 11 8 13 5 6 6 5 4 6 6 6 6 5 5 5 5 6 6 5 3 4 5 6 6 7 7 7 6
18 15 11 6 4 2 3 4 7 7 5 6 6 5 6 10 9 8 6 4 3 3 3 3 3 3 3 3 3 3 2 3 3 4 4 6 7 7 7 6 6 7 9 10
Wind_Direction
197 215 225 240 205 263 304 320 318 316 247 252 257 235 241 240 240 251 223 198 191 168 187 198 173 148 150 159 168 160 178 199 218 232 229 223 212 222 197 188 194 188 193 199
208 221 231 234 237 263 290 306 317 304 300 254 276 265 232 244 251 253 242 235 215 205 201 217 196 174 124 159 163 161 169 185 194 206 200 204 222 213 195 180 195 194 204 217
216 233 227 237 247 267 280 287 300 296 288 279 281 276 241 250 241 234 243 241 234 207 213 216 212 218 197 179 176 182 179 192 191 181 197 211 216 210 206 210 202 201 206 205
224 215 224 221 240 256 275 294 271 268 272 305 271 299 263 260 244 235 237 241 247 238 228 221 226 231 226 177 177 177 184 204 199 202 204 202 195 196 193 195 197 202 207 199
192 189 200 198 222 227 278 235 252 257 263 273 272 267 307 283 273 266 244 240 248 246 233 231 226 232 215 188 177 172 181 197 209 217 217 207 192 194 218 200 200 203 205 210
217 238 257 201 161 188 255 262 235 260 237 281 275 243 291 286 331 268 262 241 240 241 240 232 233 230 198 194 182 182 190 187 199 212 217 214 214 209 239 211 206 212 210 212
237 227 244 264 249 232 231 231 116 42 106 225 281 221 255 295 304 306 295 242 241 233 236 241 230 227 216 205 204 201 204 208 200 206 216 223 223 227 232 231 202 213 208 209
112 150 324 289 241 252 222 236 200 188 191 233 202 231 258 275 308 315 313 263 253 243 229 233 226 238 227 214 211 217 218 206 200 204 211 218 225 224 222 222 230 211 209 224
255 110 342 14 297 250 239 220 227 205 182 200 216 253 258 260 302 324 327 305 254 253 232 230 229 235 223 219 207 222 225 221 213 205 214 219 220 221 219 224 230 222 210 225
255 288 299 311 313 249 238 245 211 226 140 215 241 249 241 260 304 316 335 309 272 268 238 223 225 223 230 223 217 220 226 230 242 228 219 221 219 221 219 225 231 235 225 219
221 251 272 267 48 211 209 217 216 197 185 160 185 238 230 255 287 295 312 295 283 264 254 242 235 234 233 228 232 217 215 225 219 232 228 218 220 221 222 224 229 228 233 236
204 182 154 147 137 108 99 145 225 218 221 198 193 242 250 239 270 293 294 302 282 278 252 247 238 232 235 230 223 220 232 227 230 222 236 225 221 227 227 224 223 224 233 244
231 176 147 173 207 207 251 13 302 260 227 223 178 247 260 242 269 276 282 287 301 275 251 241 239 226 229 229 225 230 234 230 249 230 229 234 241 242 241 242 233 230 230 238
206 204 193 193 231 235 276 299 293 268 256 252 247 274 271 263 267 274 278 280 278 272 258 263 260 236 229 219 217 224 232 228 219 222 232 242 242 249 248 247 245 237 237 242
226 214 239 235 221 249 264 265 299 292 273 264 277 288 283 261 264 270 282 275 281 269 235 244 224 221 237 216 214 223 229 232 234 226 226 229 242 246 252 250 247 245 242 244
231 225 223 227 235 256 256 264 281 288 288 284 282 277 275 261 263 272 273 283 292 261 235 240 233 197 218 217 217 221 232 228 224 227 231 238 240 244 245 250 251 248 247 246
227 235 230 226 239 252 268 271 266 281 286 277 271 285 276 256 272 273 257 267 293 252 226 223 219 226 229 236 225 234 233 231 226 239 236 236 234 236 242 241 247 241 245 242
254 259 235 236 235 221 268 262 276 289 290 268 267 264 259 262 269 262 239 260 269 237 216 208 205 205 218 226 225 229 228 233 240 241 240 241 235 247 243 242 242 238 241 241
246 246 235 213 227 257 255 261 273 283 302 290 275 262 271 275 273 259 234 198 240 233 195 162 139 113 86 100 193 219 230 241 237 237 238 225 223 233 234 226 233 237 235 238
232 236 239 235 227 223 289 278 267 269 294 37 318 284 279 281 280 274 213 190 143 86 178 146 141 112 89 88 98 141 165 200 214 240 238 238 239 236 235 231 221 231 238 239
235 234 239 250 251 271 280 265 256 269 296 309 304 282 278 270 275 200 192 173 166 134 140 126 134 128 137 106 89 86 100 84 86 121 101 207 207 228 226 220 224 240 245 245
241 227 224 231 261 283 311 255 255 284 297 302 295 257 236 222 229 176 190 196 202 224 179 175 144 127 116 126 147 157 90 86 98 95 91 92 103 84 92 130 208 222 201 224
216 225 238 245 277 313 272 243 284 294 314 313 262 231 210 200 170 179 187 186 126 161 141 174 205 178 171 183 190 189 175 145 138 161 153 183 190 208 195 205 214 225 244 240
220 221 235 262 268 242 55 28 1 345 1 70 111 140 185 177 175 186 197 198 111 167 157 160 157 159 136 152 154 158 189 197 184 183 188 179 197 194 194 205 203 215 229 243
213 215 230 246 259 261 89 27 24 29 57 100 100 88 101 111 111 104 132 165 151 129 134 139 145 152 142 152 170 188 200 221 243 260 267 269 243 231 238 243 248 262 276 276
216 220 224 261 191 175 49 43 42 35 88 97 100 99 105 103 99 111 123 136 149 174 170 175 185 156 141 155 158 163 186 209 219 236 253 263 268 278 277 264 251 256 265 266
Height
3157 3159 3159 3161 3162 3163 3163 3164 3164 3165 3166 3166 3167 3168 3169 3169 3170 3171 3173 3175 3177 3180 3183 3184 3185 3187 3188 3189 3191 3192 3194 3196 3198 3199 3202 3202 3204 3206 3207 3208 3210 3212 3213 3214
3158 3157 3160 3161 3162 3162 3162 3162 3163 3164 3165 3166 3166 3166 3167 3166 3167 3168 3171 3173 3175 3179 3180 3182 3185 3187 3188 3189 3190 3192 3194 3196 3197 3199 3200 3202 3204 3206 3208 3209 3210 3212 3213 3213
3156 3159 3160 3161 3161 3162 3162 3161 3162 3163 3165 3165 3165 3164 3163 3163 3163 3164 3165 3168 3172 3174 3178 3180 3183 3186 3188 3189 3190 3192 3193 3195 3197 3198 3200 3202 3204 3205 3208 3209 3209 3211 3212 3213
3156 3158 3159 3160 3161 3162 3160 3160 3161 3162 3164 3166 3166 3164 3161 3160 3160 3161 3162 3163 3166 3170 3174 3178 3180 3184 3187 3189 3190 3191 3193 3194 3196 3198 3201 3203 3203 3204 3206 3208 3209 3210 3211 3212
3156 3156 3157 3158 3160 3160 3161 3159 3159 3161 3163 3164 3166 3167 3160 3159 3158 3158 3159 3161 3162 3167 3171 3174 3177 3182 3185 3187 3189 3190 3191 3193 3194 3196 3199 3201 3201 3202 3204 3207 3208 3210 3211 3213
3153 3154 3156 3157 3157 3158 3158 3158 3159 3160 3162 3163 3162 3165 3159 3158 3158 3157 3157 3157 3160 3162 3166 3171 3176 3179 3183 3185 3187 3188 3190 3191 3193 3194 3196 3198 3200 3202 3204 3206 3207 3209 3211 3213
3151 3153 3154 3155 3155 3156 3157 3157 3159 3163 3164 3162 3159 3161 3157 3156 3155 3155 3154 3154 3155 3159 3160 3165 3169 3173 3177 3181 3184 3186 3188 3189 3190 3192 3194 3196 3198 3200 3203 3204 3206 3208 3210 3211
3150 3152 3152 3151 3151 3153 3154 3156 3156 3162 3164 3158 3158 3157 3155 3155 3154 3153 3153 3152 3152 3152 3153 3158 3166 3167 3171 3177 3181 3183 3186 3187 3188 3189 3191 3193 3195 3198 3200 3203 3205 3206 3208 3209
3148 3149 3149 3148 3148 3151 3152 3153 3155 3154 3155 3156 3155 3154 3153 3153 3152 3152 3150 3149 3149 3148 3148 3152 3158 3163 3167 3172 3177 3180 3182 3185 3186 3187 3189 3191 3192 3195 3198 3200 3202 3206 3207 3208
3148 3149 3148 3148 3148 3148 3149 3152 3153 3152 3155 3156 3153 3151 3150 3150 3150 3149 3148 3146 3146 3146 3146 3148 3152 3158 3162 3167 3172 3176 3178 3181 3183 3185 3186 3188 3189 3192 3194 3196 3199 3202 3204 3206
3147 3148 3149 3148 3147 3146 3148 3147 3148 3149 3149 3150 3153 3149 3148 3148 3148 3147 3146 3144 3143 3142 3143 3144 3145 3151 3156 3161 3166 3170 3174 3177 3179 3182 3183 3185 3187 3188 3190 3193 3195 3198 3200 3202
3146 3146 3147 3147 3147 3146 3146 3146 3146 3146 3148 3146 3147 3146 3145 3145 3144 3144 3143 3141 3140 3138 3139 3140 3141 3142 3146 3152 3158 3163 3168 3171 3173 3177 3180 3182 3183 3185 3186 3189 3191 3194 3197 3199
3143 3144 3146 3147 3148 3146 3145 3145 3145 3144 3144 3143 3144 3143 3142 3141 3140 3139 3139 3137 3136 3135 3134 3134 3134 3134 3138 3144 3152 3158 3163 3167 3170 3172 3175 3177 3180 3181 3183 3185 3187 3190 3192 3195
3141 3142 3142 3144 3144 3144 3144 3143 3143 3143 3142 3139 3138 3138 3137 3137 3137 3136 3135 3134 3132 3131 3131 3131 3130 3129 3132 3137 3144 3152 3157 3161 3164 3167 3170 3173 3176 3178 3180 3181 3184 3185 3188 3190
3140 3140 3141 3141 3142 3142 3142 3141 3141 3140 3140 3138 3135 3133 3133 3132 3132 3132 3132 3130 3129 3127 3128 3127 3126 3126 3129 3134 3140 3146 3151 3155 3159 3161 3164 3167 3170 3173 3176 3177 3179 3182 3183 3185
3137 3137 3138 3139 3138 3138 3138 3138 3137 3136 3134 3133 3131 3128 3128 3127 3128 3129 3129 3128 3125 3124 3124 3124 3125 3125 3129 3132 3135 3140 3144 3147 3152 3156 3159 3161 3163 3166 3169 3172 3174 3176 3178 3180
3135 3135 3135 3136 3135 3135 3136 3134 3133 3132 3130 3128 3125 3125 3123 3123 3124 3125 3126 3125 3124 3122 3122 3122 3123 3123 3125 3128 3131 3136 3138 3141 3145 3149 3153 3155 3158 3160 3163 3166 3168 3170 3173 3175
3131 3131 3131 3132 3132 3134 3129 3129 3128 3125 3123 3121 3119 3120 3119 3120 3121 3122 3123 3123 3122 3121 3121 3121 3121 3121 3121 3123 3124 3126 3130 3134 3137 3141 3145 3149 3151 3155 3157 3161 3163 3166 3168 3170
3127 3128 3128 3128 3127 3126 3125 3124 3123 3120 3119 3118 3116 3116 3117 3117 3117 3118 3121 3121 3120 3119 3121 3120 3120 3120 3118 3117 3118 3121 3126 3129 3132 3135 3137 3141 3145 3148 3150 3153 3157 3160 3163 3165
3124 3125 3126 3125 3124 3122 3121 3120 3119 3118 3116 3115 3114 3114 3113 3113 3113 3113 3116 3120 3119 3117 3119 3120 3121 3122 3121 3119 3119 3121 3121 3122 3126 3128 3131 3134 3137 3141 3144 3148 3151 3154 3157 3160
3121 3122 3122 3121 3120 3118 3118 3116 3116 3117 3118 3113 3111 3110 3110 3111 3111 3110 3114 3117 3118 3119 3121 3122 3123 3124 3121 3122 3124 3126 3124 3124 3126 3126 3129 3131 3134 3137 3140 3142 3147 3150 3152 3155
3117 3118 3119 3119 3118 3117 3114 3114 3115 3114 3112 3109 3106 3105 3106 3108 3109 3110 3113 3114 3117 3119 3120 3123 3125 3126 3123 3125 3125 3128 3129 3130 3129 3130 3131 3133 3133 3138 3140 3142 3144 3146 3148 3150
3113 3114 3115 3117 3116 3113 3111 3112 3111 3110 3108 3105 3102 3102 3103 3107 3110 3111 3110 3113 3116 3118 3117 3123 3125 3126 3127 3127 3128 3130 3131 3133 3134 3135 3136 3138 3139 3141 3141 3142 3144 3146 3148 3149
3109 3111 3112 3114 3113 3112 3112 3112 3111 3109 3107 3104 3102 3102 3104 3107 3109 3112 3113 3113 3116 3120 3122 3124 3124 3126 3127 3129 3130 3132 3134 3135 3136 3137 3138 3140 3141 3141 3142 3143 3144 3146 3147 3148
3107 3109 3110 3111 3111 3112 3112 3111 3111 3109 3108 3107 3106 3106 3107 3108 3110 3110 3112 3117 3119 3120 3122 3124 3125 3126 3127 3129 3131 3132 3133 3135 3137 3137 3138 3139 3140 3142 3143 3144 3145 3147 3147 3148
3103 3106 3108 3109 3110 3111 3111 3111 3111 3110 3110 3110 3110 3109 3110 3111 3113 3114 3116 3117 3118 3120 3123 3125 3127 3127 3128 3129 3130 3130 3132 3133 3135 3136 3137 3139 3140 3141 3142 3143 3144 3145 3146 3147